Terminal Aerodrome Forecast
Issued by NWS

Home | Current Version | Previous Version | Graphics & Text | Print | Product List | Glossary On
Versions: 1 2 3 4 5 6 7 8 9 10 11 12 13 14 15 16 17 18 19 20 21 22 23 24 25 26 27 28 29 30
000
FTUS43 KLOT 191700
TAFORD
TAF
KORD 191735Z 1918/2024 10010KT P6SM FEW300
     FM192000 13010KT P6SM FEW300
     FM201200 16008KT P6SM SCT250
     FM201700 19009G15KT P6SM SCT180=

USA.gov is the U.S. government's official web portal to all federal, state and local government web resources and services.